Tracking 25734 objects as of 26-May-2022
HD Live streaming from Space Station
objects crossing your sky now

TDO SPACECRAFT

Track TDO SPACECRAFT now!


NORAD ID: 44482
Int'l Code: 2019-051B
Perigee: 287.1 km
Apogee: 34,468.7 km
Inclination: 26.1 °
Period: 607.0 minutes
Semi major axis: 23748 km
RCS: Unknown
Launch date: August 8, 2019
Source: United States (US)
Launch site: AIR FORCE EASTERN TEST RANGE (AFETR)
aabbcc
Your satellite tracking list
Your tracking list is empty




NASA's NSSDC Master Catalog

Two Line Element Set (TLE):
1 44482U 19051B   22145.52784848  .00002417  00000-0  13687-2 0  9999
2 44482  26.1030 262.3505 7196460 126.9688 322.4680  2.37212764 23916
Source of the keplerian elements: AFSPC